Location: Bow
(51.5261°N, 0.0167°W)
Time: 12:47:46
(UTC+00:00)

Meteor 1-24 Rocket - Pass Details

Date: 18 September 2020
Orbit: 790 x 927 km, 81.2° (Epoch: 23 October)

Event Time Altitude Azimuth Distance (km) Brightness Sun altitude
Rises 20:47:14 0° 345° (NNW) 3,341 7.6 -24.0°
Reaches altitude 10° 20:49:36 10° 344° (NNW) 2,421 6.8 -24.3°
Maximum altitude 20:55:03 74° 261° (W) 874 3.8 -25.0°
Enters shadow 20:56:34 49° 191° (S) 1,084 4.0 -25.2°
